Time,TemperatureF,DewpointF,PressureIn,WindDirection,WindDirectionDegrees,WindSpeedMPH,WindSpeedGustMPH,Humidity,HourlyPrecipIn,Conditions,Clouds,dailyrainin,SoftwareType,DateUTC
2013-04-04 00:00:00,35.5,15.1,30.61,North,0,0.0,0.0,43,0.00,,,0.00,WUHU216HW,2013-04-04 05:00:00,
2013-04-04 00:05:00,35.5,15.6,30.60,North,0,0.0,0.0,44,0.00,,,0.00,WUHU216HW,2013-04-04 05:05:00,
2013-04-04 00:10:00,35.3,15.4,30.60,North,0,0.0,0.0,44,0.00,,,0.00,WUHU216HW,2013-04-04 05:10:00,
2013-04-04 00:15:00,35.1,15.8,30.60,North,0,0.0,0.0,45,0.00,,,0.00,WUHU216HW,2013-04-04 05:15:00,
2013-04-04 00:20:00,34.9,15.6,30.61,North,0,0.0,0.0,45,0.00,,,0.00,WUHU216HW,2013-04-04 05:20:00,
2013-04-04 00:25:00,34.7,15.4,30.60,North,0,0.0,0.0,45,0.00,,,0.00,WUHU216HW,2013-04-04 05:25:00,
2013-04-04 00:30:00,34.6,15.8,30.60,North,0,0.0,0.0,46,0.00,,,0.00,WUHU216HW,2013-04-04 05:30:00,
2013-04-04 00:35:00,34.2,15.4,30.60,North,0,0.0,0.0,46,0.00,,,0.00,WUHU216HW,2013-04-04 05:35:00,
2013-04-04 00:40:00,34.0,15.8,30.60,North,0,0.0,0.0,47,0.00,,,0.00,WUHU216HW,2013-04-04 05:40:00,
2013-04-04 00:45:00,33.8,15.6,30.59,North,0,0.0,0.0,47,0.00,,,0.00,WUHU216HW,2013-04-04 05:45:00,
2013-04-04 00:50:00,33.7,15.9,30.59,North,0,0.0,0.0,48,0.00,,,0.00,WUHU216HW,2013-04-04 05:50:00,
2013-04-04 00:55:00,33.3,15.6,30.59,North,0,0.0,0.0,48,0.00,,,0.00,WUHU216HW,2013-04-04 05:55:00,
2013-04-04 01:00:00,33.1,15.9,30.59,North,0,0.0,0.0,49,0.00,,,0.00,WUHU216HW,2013-04-04 06:00:00,
2013-04-04 01:05:00,32.8,15.7,30.59,North,0,0.0,0.0,49,0.00,,,0.00,WUHU216HW,2013-04-04 06:05:00,
2013-04-04 01:10:00,32.8,16.1,30.59,North,0,0.0,0.0,50,0.00,,,0.00,WUHU216HW,2013-04-04 06:10:00,
2013-04-04 01:15:00,32.6,15.9,30.59,North,0,0.0,0.0,50,0.00,,,0.00,WUHU216HW,2013-04-04 06:15:00,
2013-04-04 01:20:00,32.6,16.8,30.59,North,0,0.0,0.0,52,0.00,,,0.00,WUHU216HW,2013-04-04 06:20:00,
2013-04-04 01:25:00,32.2,16.9,30.59,North,0,0.0,0.0,53,0.00,,,0.00,WUHU216HW,2013-04-04 06:25:00,
2013-04-04 01:30:00,32.0,16.7,30.58,North,0,0.0,0.0,53,0.00,,,0.00,WUHU216HW,2013-04-04 06:30:00,
2013-04-04 01:35:00,32.4,16.7,30.58,North,0,0.0,0.0,52,0.00,,,0.00,WUHU216HW,2013-04-04 06:35:00,
2013-04-04 01:40:00,32.8,17.0,30.58,North,0,0.0,0.0,52,0.00,,,0.00,WUHU216HW,2013-04-04 06:40:00,
2013-04-04 01:45:00,32.8,17.0,30.58,North,0,0.0,0.0,52,0.00,,,0.00,WUHU216HW,2013-04-04 06:45:00,
2013-04-04 01:50:00,33.1,17.3,30.58,North,0,0.0,0.0,52,0.00,,,0.00,WUHU216HW,2013-04-04 06:50:00,
2013-04-04 01:55:00,33.1,17.3,30.58,North,0,0.0,0.0,52,0.00,,,0.00,WUHU216HW,2013-04-04 06:55:00,
2013-04-04 02:00:00,32.9,17.2,30.58,North,0,0.0,0.0,52,0.00,,,0.00,WUHU216HW,2013-04-04 07:00:00,
2013-04-04 02:05:00,32.9,17.2,30.58,North,0,0.0,0.0,52,0.00,,,0.00,WUHU216HW,2013-04-04 07:05:00,
2013-04-04 02:10:00,32.8,17.0,30.58,North,0,0.0,0.0,52,0.00,,,0.00,WUHU216HW,2013-04-04 07:10:00,
2013-04-04 02:15:00,32.8,17.5,30.57,North,0,0.0,0.0,53,0.00,,,0.00,WUHU216HW,2013-04-04 07:15:00,
2013-04-04 02:20:00,32.4,17.1,30.57,North,0,0.0,0.0,53,0.00,,,0.00,WUHU216HW,2013-04-04 07:20:00,
2013-04-04 02:25:00,31.9,16.7,30.56,North,0,0.0,0.0,53,0.00,,,0.00,WUHU216HW,2013-04-04 07:25:00,
2013-04-04 02:30:00,31.3,16.6,30.56,North,0,0.0,0.0,54,0.00,,,0.00,WUHU216HW,2013-04-04 07:30:00,
2013-04-04 02:35:00,30.6,17.1,30.56,North,0,0.0,0.0,57,0.00,,,0.00,WUHU216HW,2013-04-04 07:35:00,
2013-04-04 02:40:00,30.1,16.6,30.56,North,0,0.0,0.0,57,0.00,,,0.00,WUHU216HW,2013-04-04 07:40:00,
2013-04-04 02:45:00,29.7,16.7,30.56,North,0,0.0,0.0,58,0.00,,,0.00,WUHU216HW,2013-04-04 07:45:00,
2013-04-04 02:50:00,29.3,17.2,30.56,North,0,0.0,0.0,60,0.00,,,0.00,WUHU216HW,2013-04-04 07:50:00,
2013-04-04 02:55:00,29.2,16.7,30.56,North,0,0.0,0.0,59,0.00,,,0.00,WUHU216HW,2013-04-04 07:55:00,
2013-04-04 03:00:00,29.0,16.8,30.56,North,0,0.0,0.0,60,0.00,,,0.00,WUHU216HW,2013-04-04 08:00:00,
2013-04-04 03:05:00,28.8,16.8,30.56,North,0,0.0,0.0,60,0.00,,,0.00,WUHU216HW,2013-04-04 08:05:00,
2013-04-04 03:10:00,28.8,17.1,30.55,North,0,0.0,0.0,61,0.00,,,0.00,WUHU216HW,2013-04-04 08:10:00,
2013-04-04 03:15:00,28.6,16.9,30.55,North,0,0.0,0.0,61,0.00,,,0.00,WUHU216HW,2013-04-04 08:15:00,
2013-04-04 03:20:00,28.4,16.7,30.55,North,0,0.0,0.0,61,0.00,,,0.00,WUHU216HW,2013-04-04 08:20:00,
2013-04-04 03:25:00,28.4,17.1,30.55,North,0,0.0,0.0,62,0.00,,,0.00,WUHU216HW,2013-04-04 08:25:00,
2013-04-04 03:30:00,28.3,16.9,30.55,North,0,0.0,0.0,62,0.00,,,0.00,WUHU216HW,2013-04-04 08:30:00,
2013-04-04 03:35:00,28.1,16.7,30.55,North,0,0.0,0.0,62,0.00,,,0.00,WUHU216HW,2013-04-04 08:35:00,
2013-04-04 03:40:00,27.9,16.6,30.55,North,0,0.0,0.0,62,0.00,,,0.00,WUHU216HW,2013-04-04 08:40:00,
2013-04-04 03:45:00,27.9,16.6,30.55,North,0,0.0,0.0,62,0.00,,,0.00,WUHU216HW,2013-04-04 08:45:00,
2013-04-04 03:50:00,27.9,16.6,30.55,North,0,0.0,0.0,62,0.00,,,0.00,WUHU216HW,2013-04-04 08:50:00,
2013-04-04 03:55:00,27.9,16.6,30.55,North,0,0.0,0.0,62,0.00,,,0.00,WUHU216HW,2013-04-04 08:55:00,
2013-04-04 04:00:00,27.9,16.6,30.54,North,0,0.0,0.0,62,0.00,,,0.00,WUHU216HW,2013-04-04 09:00:00,
2013-04-04 04:05:00,27.9,16.6,30.54,North,0,0.0,0.0,62,0.00,,,0.00,WUHU216HW,2013-04-04 09:05:00,
2013-04-04 04:10:00,27.9,16.6,30.54,North,0,0.0,0.0,62,0.00,,,0.00,WUHU216HW,2013-04-04 09:10:00,
2013-04-04 04:15:00,27.9,16.6,30.54,North,0,0.0,0.0,62,0.00,,,0.00,WUHU216HW,2013-04-04 09:15:00,
2013-04-04 04:20:00,27.9,16.6,30.54,North,0,0.0,0.0,62,0.00,,,0.00,WUHU216HW,2013-04-04 09:20:00,
2013-04-04 04:25:00,28.1,16.7,30.54,North,0,0.0,0.0,62,0.00,,,0.00,WUHU216HW,2013-04-04 09:25:00,
2013-04-04 04:30:00,28.1,16.7,30.54,North,0,0.0,0.0,62,0.00,,,0.00,WUHU216HW,2013-04-04 09:30:00,
2013-04-04 04:35:00,28.1,17.1,30.54,North,0,0.0,0.0,63,0.00,,,0.00,WUHU216HW,2013-04-04 09:35:00,
2013-04-04 04:40:00,27.9,16.9,30.54,North,0,0.0,0.0,63,0.00,,,0.00,WUHU216HW,2013-04-04 09:40:00,
2013-04-04 04:45:00,27.9,16.9,30.53,North,0,0.0,0.0,63,0.00,,,0.00,WUHU216HW,2013-04-04 09:45:00,
2013-04-04 04:50:00,27.9,16.9,30.54,North,0,0.0,0.0,63,0.00,,,0.00,WUHU216HW,2013-04-04 09:50:00,
2013-04-04 04:55:00,28.1,17.1,30.54,North,0,0.0,0.0,63,0.00,,,0.00,WUHU216HW,2013-04-04 09:55:00,
2013-04-04 05:00:00,28.1,17.1,30.53,North,0,0.0,0.0,63,0.00,,,0.00,WUHU216HW,2013-04-04 10:00:00,
2013-04-04 05:05:00,28.3,17.3,30.53,North,0,0.0,0.0,63,0.00,,,0.00,WUHU216HW,2013-04-04 10:05:00,
2013-04-04 05:10:00,28.3,17.3,30.53,North,0,0.0,0.0,63,0.00,,,0.00,WUHU216HW,2013-04-04 10:10:00,
2013-04-04 05:15:00,28.4,17.5,30.53,North,0,0.0,0.0,63,0.00,,,0.00,WUHU216HW,2013-04-04 10:15:00,
2013-04-04 05:20:00,28.4,17.5,30.53,North,0,0.0,0.0,63,0.00,,,0.00,WUHU216HW,2013-04-04 10:20:00,
2013-04-04 05:25:00,28.4,17.5,30.53,North,0,0.0,0.0,63,0.00,,,0.00,WUHU216HW,2013-04-04 10:25:00,
2013-04-04 05:31:00,28.4,17.5,30.53,North,0,0.0,0.0,63,0.00,,,0.00,WUHU216HW,2013-04-04 10:31:00,
2013-04-04 05:36:00,28.4,17.5,30.53,North,0,0.0,0.0,63,0.00,,,0.00,WUHU216HW,2013-04-04 10:36:00,
2013-04-04 05:41:00,28.6,17.7,30.53,North,0,0.0,0.0,63,0.00,,,0.00,WUHU216HW,2013-04-04 10:41:00,
2013-04-04 05:46:00,28.6,17.7,30.52,North,0,0.0,0.0,63,0.00,,,0.00,WUHU216HW,2013-04-04 10:46:00,
2013-04-04 05:51:00,28.4,17.5,30.52,North,0,0.0,0.0,63,0.00,,,0.00,WUHU216HW,2013-04-04 10:51:00,
2013-04-04 05:56:00,28.4,17.5,30.52,North,0,0.0,0.0,63,0.00,,,0.00,WUHU216HW,2013-04-04 10:56:00,
2013-04-04 06:01:00,28.4,17.5,30.52,North,0,0.0,0.0,63,0.00,,,0.00,WUHU216HW,2013-04-04 11:01:00,
2013-04-04 06:06:00,28.4,17.8,30.52,North,0,0.0,0.0,64,0.00,,,0.00,WUHU216HW,2013-04-04 11:06:00,
2013-04-04 06:11:00,28.4,17.8,30.52,North,0,0.0,0.0,64,0.00,,,0.00,WUHU216HW,2013-04-04 11:11:00,
2013-04-04 06:16:00,28.3,17.6,30.52,North,0,0.0,0.0,64,0.00,,,0.00,WUHU216HW,2013-04-04 11:16:00,
2013-04-04 06:21:00,28.3,17.6,30.52,North,0,0.0,0.0,64,0.00,,,0.00,WUHU216HW,2013-04-04 11:21:00,
2013-04-04 06:27:00,28.3,17.6,30.52,North,0,0.0,0.0,64,0.00,,,0.00,WUHU216HW,2013-04-04 11:27:00,
2013-04-04 06:32:00,28.4,17.8,30.52,North,0,0.0,0.0,64,0.00,,,0.00,WUHU216HW,2013-04-04 11:32:00,
2013-04-04 06:37:00,28.4,17.8,30.53,North,0,0.0,0.0,64,0.00,,,0.00,WUHU216HW,2013-04-04 11:37:00,
2013-04-04 06:42:00,28.4,17.8,30.52,North,0,0.0,0.0,64,0.00,,,0.00,WUHU216HW,2013-04-04 11:42:00,
2013-04-04 06:47:00,28.4,17.8,30.53,North,0,0.0,0.0,64,0.00,,,0.00,WUHU216HW,2013-04-04 11:47:00,
2013-04-04 06:52:00,28.4,17.8,30.53,North,0,0.0,0.0,64,0.00,,,0.00,WUHU216HW,2013-04-04 11:52:00,
2013-04-04 06:57:00,28.6,18.0,30.53,North,0,0.0,0.0,64,0.00,,,0.00,WUHU216HW,2013-04-04 11:57:00,
2013-04-04 07:02:00,29.2,18.5,30.53,North,0,0.0,0.0,64,0.00,,,0.00,WUHU216HW,2013-04-04 12:02:00,
2013-04-04 07:07:00,30.1,20.0,30.53,North,0,0.0,0.0,66,0.00,,,0.00,WUHU216HW,2013-04-04 12:07:00,
2013-04-04 07:12:00,31.0,20.5,30.53,North,0,0.0,0.0,65,0.00,,,0.00,WUHU216HW,2013-04-04 12:12:00,
2013-04-04 07:17:00,31.5,20.7,30.53,North,0,0.0,0.0,64,0.00,,,0.00,WUHU216HW,2013-04-04 12:17:00,
2013-04-04 07:22:00,32.6,21.7,30.53,North,0,0.0,0.0,64,0.00,,,0.00,WUHU216HW,2013-04-04 12:22:00,
2013-04-04 07:27:00,34.2,23.2,30.53,North,0,0.0,0.0,64,0.00,,,0.00,WUHU216HW,2013-04-04 12:27:00,
2013-04-04 07:32:00,36.4,24.9,30.53,North,0,0.0,0.0,63,0.00,,,0.00,WUHU216HW,2013-04-04 12:32:00,
2013-04-04 07:37:00,39.2,27.6,30.53,North,0,0.0,0.0,63,0.00,,,0.00,WUHU216HW,2013-04-04 12:37:00,
2013-04-04 07:42:00,42.1,29.6,30.53,North,0,0.0,0.0,61,0.00,,,0.00,WUHU216HW,2013-04-04 12:42:00,
2013-04-04 07:47:00,45.2,30.8,30.53,North,0,0.0,0.0,57,0.00,,,0.00,WUHU216HW,2013-04-04 12:47:00,
2013-04-04 07:52:00,47.3,31.9,30.53,North,0,0.0,0.0,55,0.00,,,0.00,WUHU216HW,2013-04-04 12:52:00,
2013-04-04 07:57:00,50.0,33.6,30.53,North,0,0.0,0.0,53,0.00,,,0.00,WUHU216HW,2013-04-04 12:57:00,
2013-04-04 08:02:00,52.0,33.5,30.53,North,0,0.0,0.0,49,0.00,,,0.00,WUHU216HW,2013-04-04 13:02:00,
2013-04-04 08:07:00,51.1,32.0,30.52,North,0,0.0,0.0,48,0.00,,,0.00,WUHU216HW,2013-04-04 13:07:00,
2013-04-04 08:12:00,49.5,29.4,30.53,North,0,0.0,0.0,46,0.00,,,0.00,WUHU216HW,2013-04-04 13:12:00,
2013-04-04 08:17:00,48.4,29.0,30.52,North,0,0.0,0.0,47,0.00,,,0.00,WUHU216HW,2013-04-04 13:17:00,
2013-04-04 08:22:00,48.4,28.5,30.52,North,0,0.0,0.0,46,0.00,,,0.00,WUHU216HW,2013-04-04 13:22:00,
2013-04-04 08:27:00,48.8,29.4,30.52,North,0,0.0,0.0,47,0.00,,,0.00,WUHU216HW,2013-04-04 13:27:00,
2013-04-04 08:32:00,50.0,30.5,30.51,North,0,0.0,0.0,47,0.00,,,0.00,WUHU216HW,2013-04-04 13:32:00,
2013-04-04 08:37:00,51.8,30.5,30.51,North,0,0.0,0.0,44,0.00,,,0.00,WUHU216HW,2013-04-04 13:37:00,
2013-04-04 08:42:00,52.9,30.3,30.51,North,0,0.0,0.0,42,0.00,,,0.00,WUHU216HW,2013-04-04 13:42:00,
2013-04-04 08:47:00,52.7,31.3,30.51,North,0,0.0,0.0,44,0.00,,,0.00,WUHU216HW,2013-04-04 13:47:00,
2013-04-04 08:52:00,52.2,30.2,30.51,North,0,0.0,0.0,43,0.00,,,0.00,WUHU216HW,2013-04-04 13:52:00,
2013-04-04 08:57:00,51.8,30.0,30.50,North,0,0.0,0.0,43,0.00,,,0.00,WUHU216HW,2013-04-04 13:57:00,
2013-04-04 09:02:00,51.7,29.3,30.50,North,0,0.0,0.0,42,0.00,,,0.00,WUHU216HW,2013-04-04 14:02:00,
2013-04-04 09:07:00,51.3,28.9,30.50,North,0,0.0,0.0,42,0.00,,,0.00,WUHU216HW,2013-04-04 14:07:00,
2013-04-04 09:12:00,50.8,28.5,30.50,North,0,0.0,0.0,42,0.00,,,0.00,WUHU216HW,2013-04-04 14:12:00,
2013-04-04 09:17:00,50.9,29.2,30.49,North,0,0.0,0.0,43,0.00,,,0.00,WUHU216HW,2013-04-04 14:17:00,
2013-04-04 09:22:00,51.3,28.9,30.49,North,0,0.0,0.0,42,0.00,,,0.00,WUHU216HW,2013-04-04 14:22:00,
2013-04-04 09:27:00,51.3,29.4,30.50,North,0,0.0,0.0,43,0.00,,,0.00,WUHU216HW,2013-04-04 14:27:00,
2013-04-04 09:32:00,51.5,29.6,30.49,North,0,0.0,0.0,43,0.00,,,0.00,WUHU216HW,2013-04-04 14:32:00,
2013-04-04 09:37:00,51.5,29.6,30.49,North,0,0.0,0.0,43,0.00,,,0.00,WUHU216HW,2013-04-04 14:37:00,
2013-04-04 09:42:00,51.8,29.3,30.49,North,0,0.0,0.0,42,0.00,,,0.00,WUHU216HW,2013-04-04 14:42:00,
2013-04-04 09:47:00,52.2,29.7,30.48,North,0,0.0,0.0,42,0.00,,,0.00,WUHU216HW,2013-04-04 14:47:00,
2013-04-04 09:52:00,52.2,29.7,30.48,North,0,0.0,0.0,42,0.00,,,0.00,WUHU216HW,2013-04-04 14:52:00,
2013-04-04 09:57:00,52.2,29.2,30.48,North,0,0.0,0.0,41,0.00,,,0.00,WUHU216HW,2013-04-04 14:57:00,
2013-04-04 10:02:00,52.7,30.2,30.48,North,0,0.0,0.0,42,0.00,,,0.00,WUHU216HW,2013-04-04 15:02:00,
2013-04-04 10:07:00,52.9,29.8,30.48,North,0,0.0,0.0,41,0.00,,,0.00,WUHU216HW,2013-04-04 15:07:00,
2013-04-04 10:12:00,53.1,30.0,30.48,North,0,0.0,0.0,41,0.00,,,0.00,WUHU216HW,2013-04-04 15:12:00,
2013-04-04 10:18:00,52.9,29.3,30.47,North,0,0.0,0.0,40,0.00,,,0.00,WUHU216HW,2013-04-04 15:18:00,
2013-04-04 10:23:00,52.9,29.8,30.47,North,0,0.0,0.0,41,0.00,,,0.00,WUHU216HW,2013-04-04 15:23:00,
2013-04-04 10:28:00,53.1,30.0,30.47,North,0,0.0,0.0,41,0.00,,,0.00,WUHU216HW,2013-04-04 15:28:00,
2013-04-04 10:33:00,53.3,28.9,30.47,North,0,0.0,0.0,39,0.00,,,0.00,WUHU216HW,2013-04-04 15:33:00,
2013-04-04 10:38:00,53.5,29.1,30.47,North,0,0.0,0.0,39,0.00,,,0.00,WUHU216HW,2013-04-04 15:38:00,
2013-04-04 10:43:00,53.6,29.9,30.47,North,0,0.0,0.0,40,0.00,,,0.00,WUHU216HW,2013-04-04 15:43:00,
2013-04-04 10:48:00,53.8,30.1,30.47,North,0,0.0,0.0,40,0.00,,,0.00,WUHU216HW,2013-04-04 15:48:00,
2013-04-04 10:53:00,54.2,29.7,30.47,North,0,0.0,0.0,39,0.00,,,0.00,WUHU216HW,2013-04-04 15:53:00,
2013-04-04 10:58:00,54.4,29.2,30.47,North,0,0.0,0.0,38,0.00,,,0.00,WUHU216HW,2013-04-04 15:58:00,
2013-04-04 11:03:00,54.5,28.6,30.47,North,0,0.0,0.0,37,0.00,,,0.00,WUHU216HW,2013-04-04 16:03:00,
2013-04-04 11:08:00,54.7,29.4,30.47,North,0,0.0,0.0,38,0.00,,,0.00,WUHU216HW,2013-04-04 16:08:00,
2013-04-04 11:13:00,55.3,30.0,30.46,North,0,0.0,0.0,38,0.00,,,0.00,WUHU216HW,2013-04-04 16:13:00,
2013-04-04 11:18:00,55.4,29.4,30.46,North,0,0.0,0.0,37,0.00,,,0.00,WUHU216HW,2013-04-04 16:18:00,
2013-04-04 11:23:00,55.3,28.5,30.46,North,0,0.0,0.0,36,0.00,,,0.00,WUHU216HW,2013-04-04 16:23:00,
2013-04-04 11:28:00,55.6,29.5,30.46,North,0,0.0,0.0,37,0.00,,,0.00,WUHU216HW,2013-04-04 16:28:00,
2013-04-04 11:33:00,55.8,29.7,30.46,North,0,0.0,0.0,37,0.00,,,0.00,WUHU216HW,2013-04-04 16:33:00,
2013-04-04 11:38:00,56.2,30.1,30.46,North,0,0.0,0.0,37,0.00,,,0.00,WUHU216HW,2013-04-04 16:38:00,
2013-04-04 11:43:00,56.7,29.8,30.46,North,0,0.0,0.0,36,0.00,,,0.00,WUHU216HW,2013-04-04 16:43:00,
2013-04-04 11:48:00,56.5,29.7,30.46,North,0,0.0,0.0,36,0.00,,,0.00,WUHU216HW,2013-04-04 16:48:00,
2013-04-04 11:53:00,56.5,29.7,30.45,North,0,0.0,0.0,36,0.00,,,0.00,WUHU216HW,2013-04-04 16:53:00,
2013-04-04 11:58:00,56.5,29.7,30.45,North,0,0.0,0.0,36,0.00,,,0.00,WUHU216HW,2013-04-04 16:58:00,
2013-04-04 12:03:00,56.2,29.3,30.44,North,0,0.0,0.0,36,0.00,,,0.00,WUHU216HW,2013-04-04 17:03:00,
2013-04-04 12:08:00,56.3,29.5,30.44,North,0,0.0,0.0,36,0.00,,,0.00,WUHU216HW,2013-04-04 17:08:00,
2013-04-04 12:13:00,56.5,29.7,30.44,North,0,0.0,0.0,36,0.00,,,0.00,WUHU216HW,2013-04-04 17:13:00,
2013-04-04 12:18:00,56.5,29.7,30.44,North,0,0.0,0.0,36,0.00,,,0.00,WUHU216HW,2013-04-04 17:18:00,
2013-04-04 12:23:00,56.7,30.5,30.44,North,0,0.0,0.0,37,0.00,,,0.00,WUHU216HW,2013-04-04 17:23:00,
2013-04-04 12:28:00,56.7,28.5,30.43,North,0,0.0,0.0,34,0.00,,,0.00,WUHU216HW,2013-04-04 17:28:00,
2013-04-04 12:33:00,56.5,29.0,30.43,North,0,0.0,0.0,35,0.00,,,0.00,WUHU216HW,2013-04-04 17:33:00,
2013-04-04 12:38:00,56.5,29.7,30.43,North,0,0.0,0.0,36,0.00,,,0.00,WUHU216HW,2013-04-04 17:38:00,
2013-04-04 12:43:00,56.7,30.5,30.43,North,0,0.0,0.0,37,0.00,,,0.00,WUHU216HW,2013-04-04 17:43:00,
2013-04-04 12:48:00,57.2,30.3,30.43,North,0,0.0,0.0,36,0.00,,,0.00,WUHU216HW,2013-04-04 17:48:00,
2013-04-04 12:53:00,57.4,31.1,30.42,North,0,0.0,0.0,37,0.00,,,0.00,WUHU216HW,2013-04-04 17:53:00,
2013-04-04 12:58:00,57.6,31.3,30.42,North,0,0.0,0.0,37,0.00,,,0.00,WUHU216HW,2013-04-04 17:58:00,
2013-04-04 13:03:00,58.0,31.7,30.42,North,0,0.0,0.0,37,0.00,,,0.00,WUHU216HW,2013-04-04 18:03:00,
2013-04-04 13:08:00,57.8,30.1,30.41,North,0,0.0,0.0,35,0.00,,,0.00,WUHU216HW,2013-04-04 18:08:00,
2013-04-04 13:13:00,57.6,30.6,30.41,North,0,0.0,0.0,36,0.00,,,0.00,WUHU216HW,2013-04-04 18:13:00,
2013-04-04 13:18:00,57.2,30.3,30.41,North,0,0.0,0.0,36,0.00,,,0.00,WUHU216HW,2013-04-04 18:18:00,
2013-04-04 13:23:00,57.2,30.3,30.41,North,0,0.0,0.0,36,0.00,,,0.00,WUHU216HW,2013-04-04 18:23:00,
2013-04-04 13:28:00,57.2,30.3,30.40,North,0,0.0,0.0,36,0.00,,,0.00,WUHU216HW,2013-04-04 18:28:00,
2013-04-04 13:33:00,57.2,31.1,30.40,North,0,0.0,0.0,37,0.00,,,0.00,WUHU216HW,2013-04-04 18:33:00,
2013-04-04 13:38:00,57.6,30.6,30.40,North,0,0.0,0.0,36,0.00,,,0.00,WUHU216HW,2013-04-04 18:38:00,
2013-04-04 13:43:00,57.4,30.5,30.40,North,0,0.0,0.0,36,0.00,,,0.00,WUHU216HW,2013-04-04 18:43:00,
2013-04-04 13:48:00,57.6,31.3,30.40,North,0,0.0,0.0,37,0.00,,,0.00,WUHU216HW,2013-04-04 18:48:00,
2013-04-04 13:53:00,58.0,32.4,30.39,North,0,0.0,0.0,38,0.00,,,0.00,WUHU216HW,2013-04-04 18:53:00,
2013-04-04 13:58:00,58.1,31.2,30.39,North,0,0.0,0.0,36,0.00,,,0.00,WUHU216HW,2013-04-04 18:58:00,
2013-04-04 14:03:00,58.1,31.9,30.38,North,0,0.0,0.0,37,0.00,,,0.00,WUHU216HW,2013-04-04 19:03:00,
2013-04-04 14:08:00,58.1,32.5,30.38,North,0,0.0,0.0,38,0.00,,,0.00,WUHU216HW,2013-04-04 19:08:00,
2013-04-04 14:13:00,58.7,31.6,30.38,North,0,0.0,0.0,36,0.00,,,0.00,WUHU216HW,2013-04-04 19:13:00,
2013-04-04 14:18:00,58.5,30.1,30.38,North,0,0.0,0.0,34,0.00,,,0.00,WUHU216HW,2013-04-04 19:18:00,
2013-04-04 14:23:00,58.5,31.4,30.38,North,0,0.0,0.0,36,0.00,,,0.00,WUHU216HW,2013-04-04 19:23:00,
2013-04-04 14:28:00,58.5,30.1,30.38,North,0,0.0,0.0,34,0.00,,,0.00,WUHU216HW,2013-04-04 19:28:00,
2013-04-04 14:33:00,58.5,30.8,30.38,North,0,0.0,0.0,35,0.00,,,0.00,WUHU216HW,2013-04-04 19:33:00,
2013-04-04 14:38:00,58.5,30.8,30.37,North,0,0.0,0.0,35,0.00,,,0.00,WUHU216HW,2013-04-04 19:38:00,
2013-04-04 14:43:00,58.7,31.6,30.36,North,0,0.0,0.0,36,0.00,,,0.00,WUHU216HW,2013-04-04 19:43:00,
2013-04-04 14:48:00,58.7,31.6,30.36,North,0,0.0,0.0,36,0.00,,,0.00,WUHU216HW,2013-04-04 19:48:00,
2013-04-04 14:53:00,58.7,30.9,30.36,North,0,0.0,0.0,35,0.00,,,0.00,WUHU216HW,2013-04-04 19:53:00,
2013-04-04 14:58:00,58.7,31.6,30.36,North,0,0.0,0.0,36,0.00,,,0.00,WUHU216HW,2013-04-04 19:58:00,
2013-04-04 15:03:00,58.7,30.3,30.36,North,0,0.0,0.0,34,0.00,,,0.00,WUHU216HW,2013-04-04 20:03:00,
2013-04-04 15:08:00,58.7,30.3,30.35,North,0,0.0,0.0,34,0.00,,,0.00,WUHU216HW,2013-04-04 20:08:00,
2013-04-04 15:13:00,58.7,31.6,30.35,North,0,0.0,0.0,36,0.00,,,0.00,WUHU216HW,2013-04-04 20:13:00,
2013-04-04 15:18:00,58.7,32.3,30.35,North,0,0.0,0.0,37,0.00,,,0.00,WUHU216HW,2013-04-04 20:18:00,
2013-04-04 15:23:00,58.5,32.1,30.35,North,0,0.0,0.0,37,0.00,,,0.00,WUHU216HW,2013-04-04 20:23:00,
2013-04-04 15:28:00,58.7,32.3,30.35,North,0,0.0,0.0,37,0.00,,,0.00,WUHU216HW,2013-04-04 20:28:00,
2013-04-04 15:33:00,59.0,32.7,30.35,North,0,0.0,0.0,37,0.00,,,0.00,WUHU216HW,2013-04-04 20:33:00,
2013-04-04 15:38:00,59.2,32.1,30.35,North,0,0.0,0.0,36,0.00,,,0.00,WUHU216HW,2013-04-04 20:38:00,
2013-04-04 15:43:00,59.2,32.1,30.34,North,0,0.0,0.0,36,0.00,,,0.00,WUHU216HW,2013-04-04 20:43:00,
2013-04-04 15:48:00,59.4,32.2,30.33,North,0,0.0,0.0,36,0.00,,,0.00,WUHU216HW,2013-04-04 20:48:00,
2013-04-04 15:53:00,59.4,32.2,30.34,North,0,0.0,0.0,36,0.00,,,0.00,WUHU216HW,2013-04-04 20:53:00,
2013-04-04 15:58:00,59.6,32.4,30.34,North,0,0.0,0.0,36,0.00,,,0.00,WUHU216HW,2013-04-04 20:58:00,
2013-04-04 16:03:00,59.4,31.5,30.33,North,0,0.0,0.0,35,0.00,,,0.00,WUHU216HW,2013-04-04 21:03:00,
2013-04-04 16:08:00,59.4,32.2,30.33,North,0,0.0,0.0,36,0.00,,,0.00,WUHU216HW,2013-04-04 21:08:00,
2013-04-04 16:13:00,59.6,33.1,30.33,North,0,0.0,0.0,37,0.00,,,0.00,WUHU216HW,2013-04-04 21:13:00,
2013-04-04 16:18:00,59.8,32.6,30.33,North,0,0.0,0.0,36,0.00,,,0.00,WUHU216HW,2013-04-04 21:18:00,
2013-04-04 16:23:00,59.8,32.6,30.33,North,0,0.0,0.0,36,0.00,,,0.00,WUHU216HW,2013-04-04 21:23:00,
2013-04-04 16:28:00,59.6,32.4,30.33,North,0,0.0,0.0,36,0.00,,,0.00,WUHU216HW,2013-04-04 21:28:00,
2013-04-04 16:33:00,59.8,31.9,30.33,North,0,0.0,0.0,35,0.00,,,0.00,WUHU216HW,2013-04-04 21:33:00,
2013-04-04 16:38:00,59.8,32.6,30.33,North,0,0.0,0.0,36,0.00,,,0.00,WUHU216HW,2013-04-04 21:38:00,
2013-04-04 16:43:00,59.9,32.7,30.33,North,0,0.0,0.0,36,0.00,,,0.00,WUHU216HW,2013-04-04 21:43:00,
2013-04-04 16:48:00,59.9,32.7,30.33,North,0,0.0,0.0,36,0.00,,,0.00,WUHU216HW,2013-04-04 21:48:00,
2013-04-04 16:53:00,59.9,32.7,30.32,North,0,0.0,0.0,36,0.00,,,0.00,WUHU216HW,2013-04-04 21:53:00,
2013-04-04 16:58:00,59.9,32.0,30.33,North,0,0.0,0.0,35,0.00,,,0.00,WUHU216HW,2013-04-04 21:58:00,
2013-04-04 17:03:00,59.8,32.6,30.32,North,0,0.0,0.0,36,0.00,,,0.00,WUHU216HW,2013-04-04 22:03:00,
2013-04-04 17:08:00,59.8,32.6,30.33,North,0,0.0,0.0,36,0.00,,,0.00,WUHU216HW,2013-04-04 22:08:00,
2013-04-04 17:13:00,59.8,32.6,30.32,North,0,0.0,0.0,36,0.00,,,0.00,WUHU216HW,2013-04-04 22:13:00,
2013-04-04 17:18:00,59.9,32.7,30.33,North,0,0.0,0.0,36,0.00,,,0.00,WUHU216HW,2013-04-04 22:18:00,
2013-04-04 17:23:00,59.8,32.6,30.32,North,0,0.0,0.0,36,0.00,,,0.00,WUHU216HW,2013-04-04 22:23:00,
2013-04-04 17:28:00,59.8,32.6,30.33,North,0,0.0,0.0,36,0.00,,,0.00,WUHU216HW,2013-04-04 22:28:00,
2013-04-04 17:33:00,59.9,32.7,30.33,North,0,0.0,0.0,36,0.00,,,0.00,WUHU216HW,2013-04-04 22:33:00,
2013-04-04 17:38:00,60.1,31.4,30.33,North,0,0.0,0.0,34,0.00,,,0.00,WUHU216HW,2013-04-04 22:38:00,
2013-04-04 17:43:00,59.9,31.3,30.33,North,0,0.0,0.0,34,0.00,,,0.00,WUHU216HW,2013-04-04 22:43:00,
2013-04-04 17:48:00,59.8,32.6,30.33,North,0,0.0,0.0,36,0.00,,,0.00,WUHU216HW,2013-04-04 22:48:00,
2013-04-04 17:53:00,59.6,33.1,30.33,North,0,0.0,0.0,37,0.00,,,0.00,WUHU216HW,2013-04-04 22:53:00,
2013-04-04 17:58:00,59.8,32.6,30.33,North,0,0.0,0.0,36,0.00,,,0.00,WUHU216HW,2013-04-04 22:58:00,
2013-04-04 18:03:00,59.4,32.2,30.33,North,0,0.0,0.0,36,0.00,,,0.00,WUHU216HW,2013-04-04 23:03:00,
2013-04-04 18:08:00,59.2,32.8,30.33,North,0,0.0,0.0,37,0.00,,,0.00,WUHU216HW,2013-04-04 23:08:00,
2013-04-04 18:13:00,59.0,32.7,30.33,North,0,0.0,0.0,37,0.00,,,0.00,WUHU216HW,2013-04-04 23:13:00,
2013-04-04 18:18:00,58.9,33.2,30.32,North,0,0.0,0.0,38,0.00,,,0.00,WUHU216HW,2013-04-04 23:18:00,
2013-04-04 18:23:00,58.7,33.0,30.32,North,0,0.0,0.0,38,0.00,,,0.00,WUHU216HW,2013-04-04 23:23:00,
2013-04-04 18:28:00,58.7,33.0,30.32,North,0,0.0,0.0,38,0.00,,,0.00,WUHU216HW,2013-04-04 23:28:00,
2013-04-04 18:33:00,58.5,33.6,30.32,North,0,0.0,0.0,39,0.00,,,0.00,WUHU216HW,2013-04-04 23:33:00,
2013-04-04 18:38:00,58.1,33.2,30.32,North,0,0.0,0.0,39,0.00,,,0.00,WUHU216HW,2013-04-04 23:38:00,
2013-04-04 18:43:00,57.8,33.0,30.32,North,0,0.0,0.0,39,0.00,,,0.00,WUHU216HW,2013-04-04 23:43:00,
2013-04-04 18:48:00,57.4,33.3,30.31,North,0,0.0,0.0,40,0.00,,,0.00,WUHU216HW,2013-04-04 23:48:00,
2013-04-04 18:53:00,57.2,33.1,30.31,North,0,0.0,0.0,40,0.00,,,0.00,WUHU216HW,2013-04-04 23:53:00,
2013-04-04 18:58:00,56.9,33.4,30.31,North,0,0.0,0.0,41,0.00,,,0.00,WUHU216HW,2013-04-04 23:58:00,
2013-04-04 19:03:00,56.5,33.0,30.32,North,0,0.0,0.0,41,0.00,,,0.00,WUHU216HW,2013-04-05 00:03:00,
2013-04-04 19:08:00,56.2,32.7,30.31,North,0,0.0,0.0,41,0.00,,,0.00,WUHU216HW,2013-04-05 00:08:00,
2013-04-04 19:13:00,55.8,32.9,30.32,North,0,0.0,0.0,42,0.00,,,0.00,WUHU216HW,2013-04-05 00:13:00,
2013-04-04 19:18:00,55.4,33.2,30.32,North,0,0.0,0.0,43,0.00,,,0.00,WUHU216HW,2013-04-05 00:18:00,
2013-04-04 19:23:00,55.1,33.4,30.31,North,0,0.0,0.0,44,0.00,,,0.00,WUHU216HW,2013-04-05 00:23:00,
2013-04-04 19:28:00,54.9,34.4,30.31,North,0,0.0,0.0,46,0.00,,,0.00,WUHU216HW,2013-04-05 00:28:00,
2013-04-04 19:33:00,54.5,34.6,30.31,North,0,0.0,0.0,47,0.00,,,0.00,WUHU216HW,2013-04-05 00:33:00,
2013-04-04 19:38:00,54.4,33.8,30.32,North,0,0.0,0.0,46,0.00,,,0.00,WUHU216HW,2013-04-05 00:38:00,
2013-04-04 19:43:00,54.0,34.1,30.31,North,0,0.0,0.0,47,0.00,,,0.00,WUHU216HW,2013-04-05 00:43:00,
2013-04-04 19:48:00,53.6,33.8,30.32,North,0,0.0,0.0,47,0.00,,,0.00,WUHU216HW,2013-04-05 00:48:00,
2013-04-04 19:53:00,53.3,34.0,30.32,North,0,0.0,0.0,48,0.00,,,0.00,WUHU216HW,2013-04-05 00:53:00,
2013-04-04 19:58:00,52.9,34.3,30.32,North,0,0.0,0.0,49,0.00,,,0.00,WUHU216HW,2013-04-05 00:58:00,
2013-04-04 20:03:00,52.7,34.7,30.32,North,0,0.0,0.0,50,0.00,,,0.00,WUHU216HW,2013-04-05 01:03:00,
2013-04-04 20:08:00,52.6,34.9,30.32,North,0,0.0,0.0,51,0.00,,,0.00,WUHU216HW,2013-04-05 01:08:00,
2013-04-04 20:13:00,52.4,35.7,30.32,North,0,0.0,0.0,53,0.00,,,0.00,WUHU216HW,2013-04-05 01:13:00,
2013-04-04 20:18:00,52.2,35.1,30.32,North,0,0.0,0.0,52,0.00,,,0.00,WUHU216HW,2013-04-05 01:18:00,
2013-04-04 20:23:00,52.2,35.6,30.32,North,0,0.0,0.0,53,0.00,,,0.00,WUHU216HW,2013-04-05 01:23:00,
2013-04-04 20:28:00,52.0,35.4,30.32,North,0,0.0,0.0,53,0.00,,,0.00,WUHU216HW,2013-04-05 01:28:00,
2013-04-04 20:33:00,51.8,35.2,30.32,North,0,0.0,0.0,53,0.00,,,0.00,WUHU216HW,2013-04-05 01:33:00,
2013-04-04 20:38:00,51.5,35.3,30.33,North,0,0.0,0.0,54,0.00,,,0.00,WUHU216HW,2013-04-05 01:38:00,
2013-04-04 20:43:00,51.3,35.2,30.33,North,0,0.0,0.0,54,0.00,,,0.00,WUHU216HW,2013-04-05 01:43:00,
2013-04-04 20:48:00,51.1,35.0,30.33,North,0,0.0,0.0,54,0.00,,,0.00,WUHU216HW,2013-04-05 01:48:00,
2013-04-04 20:53:00,50.8,35.1,30.33,North,0,0.0,0.0,55,0.00,,,0.00,WUHU216HW,2013-04-05 01:53:00,
2013-04-04 20:58:00,50.8,35.1,30.33,North,0,0.0,0.0,55,0.00,,,0.00,WUHU216HW,2013-04-05 01:58:00,
2013-04-04 21:03:00,50.6,35.4,30.33,North,0,0.0,0.0,56,0.00,,,0.00,WUHU216HW,2013-04-05 02:03:00,
2013-04-04 21:08:00,50.4,35.3,30.34,North,0,0.0,0.0,56,0.00,,,0.00,WUHU216HW,2013-04-05 02:08:00,
2013-04-04 21:13:00,50.0,35.4,30.34,North,0,0.0,0.0,57,0.00,,,0.00,WUHU216HW,2013-04-05 02:13:00,
2013-04-04 21:18:00,49.9,35.6,30.34,North,0,0.0,0.0,58,0.00,,,0.00,WUHU216HW,2013-04-05 02:18:00,
2013-04-04 21:23:00,49.5,36.3,30.34,North,0,0.0,0.0,60,0.00,,,0.00,WUHU216HW,2013-04-05 02:23:00,
2013-04-04 21:28:00,49.3,35.7,30.35,North,0,0.0,0.0,59,0.00,,,0.00,WUHU216HW,2013-04-05 02:28:00,
2013-04-04 21:33:00,49.0,35.7,30.35,North,0,0.0,0.0,60,0.00,,,0.00,WUHU216HW,2013-04-05 02:33:00,
2013-04-04 21:38:00,48.6,36.2,30.35,North,0,0.0,0.0,62,0.00,,,0.00,WUHU216HW,2013-04-05 02:38:00,
2013-04-04 21:43:00,48.4,35.6,30.35,North,0,0.0,0.0,61,0.00,,,0.00,WUHU216HW,2013-04-05 02:43:00,
2013-04-04 21:48:00,48.1,35.3,30.35,North,0,0.0,0.0,61,0.00,,,0.00,WUHU216HW,2013-04-05 02:48:00,
2013-04-04 21:53:00,47.9,35.5,30.35,North,0,0.0,0.0,62,0.00,,,0.00,WUHU216HW,2013-04-05 02:53:00,
2013-04-04 21:58:00,47.5,35.2,30.35,North,0,0.0,0.0,62,0.00,,,0.00,WUHU216HW,2013-04-05 02:58:00,
2013-04-04 22:03:00,47.3,35.4,30.35,North,0,0.0,0.0,63,0.00,,,0.00,WUHU216HW,2013-04-05 03:03:00,
2013-04-04 22:08:00,47.2,35.2,30.35,North,0,0.0,0.0,63,0.00,,,0.00,WUHU216HW,2013-04-05 03:08:00,
2013-04-04 22:13:00,46.8,34.8,30.35,North,0,0.0,0.0,63,0.00,,,0.00,WUHU216HW,2013-04-05 03:13:00,
2013-04-04 22:18:00,46.6,34.7,30.35,North,0,0.0,0.0,63,0.00,,,0.00,WUHU216HW,2013-04-05 03:18:00,
2013-04-04 22:23:00,46.3,34.3,30.35,North,0,0.0,0.0,63,0.00,,,0.00,WUHU216HW,2013-04-05 03:23:00,
2013-04-04 22:28:00,46.1,34.9,30.36,North,0,0.0,0.0,65,0.00,,,0.00,WUHU216HW,2013-04-05 03:28:00,
2013-04-04 22:33:00,45.7,35.0,30.36,North,0,0.0,0.0,66,0.00,,,0.00,WUHU216HW,2013-04-05 03:33:00,
2013-04-04 22:38:00,45.5,34.5,30.36,North,0,0.0,0.0,65,0.00,,,0.00,WUHU216HW,2013-04-05 03:38:00,
2013-04-04 22:44:00,45.2,33.7,30.36,North,0,0.0,0.0,64,0.00,,,0.00,WUHU216HW,2013-04-05 03:44:00,
2013-04-04 22:49:00,45.0,33.9,30.35,North,0,0.0,0.0,65,0.00,,,0.00,WUHU216HW,2013-04-05 03:49:00,
2013-04-04 22:54:00,45.0,34.3,30.36,North,0,0.0,0.0,66,0.00,,,0.00,WUHU216HW,2013-04-05 03:54:00,
2013-04-04 22:59:00,44.8,34.1,30.36,North,0,0.0,0.0,66,0.00,,,0.00,WUHU216HW,2013-04-05 03:59:00,
2013-04-04 23:00:00,44.8,34.1,30.36,North,0,0.0,0.0,66,0.00,,,0.00,WUHU216HW,2013-04-05 04:00:00,
2013-04-04 23:05:00,44.8,34.1,30.36,North,0,0.0,0.0,66,0.00,,,0.00,WUHU216HW,2013-04-05 04:05:00,
2013-04-04 23:10:00,44.6,34.8,30.37,North,0,0.0,0.0,68,0.00,,,0.00,WUHU216HW,2013-04-05 04:10:00,
2013-04-04 23:15:00,44.6,33.9,30.37,North,0,0.0,0.0,66,0.00,,,0.00,WUHU216HW,2013-04-05 04:15:00,
2013-04-04 23:20:00,44.3,33.6,30.37,North,0,0.0,0.0,66,0.00,,,0.00,WUHU216HW,2013-04-05 04:20:00,
2013-04-04 23:25:00,44.3,34.0,30.37,North,0,0.0,0.0,67,0.00,,,0.00,WUHU216HW,2013-04-05 04:25:00,
2013-04-04 23:30:00,44.1,34.2,30.37,North,0,0.0,0.0,68,0.00,,,0.00,WUHU216HW,2013-04-05 04:30:00,
2013-04-04 23:35:00,43.9,33.7,30.37,North,0,0.0,0.0,67,0.00,,,0.00,WUHU216HW,2013-04-05 04:35:00,
2013-04-04 23:40:00,43.7,33.8,30.37,North,0,0.0,0.0,68,0.00,,,0.00,WUHU216HW,2013-04-05 04:40:00,
2013-04-04 23:45:00,43.6,33.8,30.37,North,0,0.0,0.0,68,0.00,,,0.00,WUHU216HW,2013-04-05 04:45:00,
2013-04-04 23:50:00,43.4,33.1,30.37,North,0,0.0,0.0,67,0.00,,,0.00,WUHU216HW,2013-04-05 04:50:00,
2013-04-04 23:56:00,43.2,33.0,30.38,North,0,0.0,0.0,67,0.00,,,0.00,WUHU216HW,2013-04-05 04:56:00,